Sitka, Alaska, United States (99835)
Lat: 57.05N, Lon: 135.33W
Wx Zone: AKZ023
Local Info
Past Weather Observations for Saturday, October 18, 2014

NOTE: This archive is for the closest National Weather Service station to Sitka. Information may differ from the station used for current weather conditions.

Click here for Long-term Archive

Time Weather Temperature Dewpoint Humidity Pressure Winds Precip Visibility
23:53
Mostly Cloudy
50°F / 10°C 45°F / 7°C 82% 29.24 in
(990 mb)
SE 13.8 mph
(SE 22 kph)
0.01 in
(0.25 mm)
10SM
22:53
Overcast
Light Rain
48°F / 9°C 46°F / 8°C 94% 29.24 in
(990 mb)
SE 12.7 mph
(SE 20 kph)
0.02 in
(0.51 mm)
10SM
21:53
Overcast
Light Rain
50°F / 10°C 46°F / 8°C 88% 29.24 in
(990 mb)
SE 15 mph
(SE 24 kph)
0.01 in
(0.25 mm)
10SM
20:53
Overcast
Light Rain
50°F / 10°C 45°F / 7°C 82% 29.21 in
(989 mb)
E 17.3 mph
(E 28 kph)
0.01 in
(0.25 mm)
10SM
19:53
Overcast
Light Rain
48°F / 9°C 45°F / 7°C 87% 29.21 in
(989 mb)
SE 13.8 mph
(SE 22 kph)
0.00 in
(0.00 mm)
10SM
18:53
Overcast
Light Rain
48°F / 9°C 45°F / 7°C 87% 29.21 in
(989 mb)
ESE 15 mph
(ESE 24 kph)
0.04 in
(1.02 mm)
10SM
17:53
Overcast
Light Rain
48°F / 9°C 46°F / 8°C 94% 29.18 in
(988 mb)
E 15 mph
(E 24 kph)
0.18 in
(4.57 mm)
7SM
16:53
Mostly Cloudy
52°F / 11°C 43°F / 6°C 72% 29.15 in
(987 mb)
SE 16.1 mph
(SE 26 kph)
0.00 in
(0.00 mm)
10SM
15:53
Overcast
Light Rain
52°F / 11°C 43°F / 6°C 72% 29.15 in
(987 mb)
ESE 13.8 mph
(ESE 22 kph)
0.01 in
(0.25 mm)
10SM
14:53
Overcast
Light Rain
50°F / 10°C 43°F / 6°C 76% 29.15 in
(987 mb)
SE 11.5 mph
(SE 19 kph)
0.01 in
(0.25 mm)
9SM
13:53
Overcast
52°F / 11°C 43°F / 6°C 72% 29.15 in
(987 mb)
SE 13.8 mph
(SE 22 kph)
0.00 in
(0.00 mm)
10SM
12:53
Overcast
52°F / 11°C 43°F / 6°C 72% 29.18 in
(988 mb)
SE 12.7 mph
(SE 20 kph)
- 10SM
11:53
Overcast
52°F / 11°C 43°F / 6°C 72% 29.24 in
(990 mb)
SE 8.1 mph
(SE 13 kph)
- 10SM
10:53
Overcast
50°F / 10°C 43°F / 6°C 76% 29.27 in
(991 mb)
ESE 10.4 mph
(ESE 17 kph)
- 10SM
09:53
Overcast
48°F / 9°C 41°F / 5°C 76% 29.3 in
(992 mb)
ESE 10.4 mph
(ESE 17 kph)
- 10SM
08:53
Overcast
48°F / 9°C 43°F / 6°C 82% 29.33 in
(993 mb)
SE 9.2 mph
(SE 15 kph)
- 10SM
07:53
Overcast
46°F / 8°C 43°F / 6°C 87% 29.33 in
(993 mb)
E 6.9 mph
(E 11 kph)
0.00 in
(0.00 mm)
10SM
06:53
Mostly Cloudy
46°F / 8°C 43°F / 6°C 87% 29.33 in
(993 mb)
SE 11.5 mph
(SE 19 kph)
- 10SM
05:53
Overcast
46°F / 8°C 43°F / 6°C 87% 29.33 in
(993 mb)
E 10.4 mph
(E 17 kph)
- 10SM
04:53
Overcast
46°F / 8°C 45°F / 7°C 93% 29.33 in
(993 mb)
E 8.1 mph
(E 13 kph)
0.01 in
(0.25 mm)
10SM
04:08
Overcast
45°F / 7°C 45°F / 7°C 100% 29.33 in
(993 mb)
E 9.2 mph
(E 15 kph)
0.00 in
(0.00 mm)
10SM
03:53
Overcast
Light Rain
46°F / 8°C 45°F / 7°C 93% 29.3 in
(992 mb)
ESE 10.4 mph
(ESE 17 kph)
0.01 in
(0.25 mm)
3SM
03:11
Overcast
45°F / 7°C 45°F / 7°C 100% 29.3 in
(992 mb)
ESE 5.8 mph
(ESE 9 kph)
0.00 in
(0.00 mm)
8SM
02:53
Overcast
Light Rain
45°F / 7°C 45°F / 7°C 100% 29.3 in
(992 mb)
ESE 5.8 mph
(ESE 9 kph)
0.01 in
(0.25 mm)
8SM
02:35
Overcast
Light Rain
45°F / 7°C 45°F / 7°C 100% 29.3 in
(992 mb)
SE 4.6 mph
(SE 7 kph)
0.00 in
(0.00 mm)
10SM
02:27
Overcast
45°F / 7°C 45°F / 7°C 100% 29.3 in
(992 mb)
ESE 4.6 mph
(ESE 7 kph)
0.00 in
(0.00 mm)
10SM
02:02
Overcast
Light Rain
45°F / 7°C 45°F / 7°C 100% 29.27 in
(991 mb)
ESE 5.8 mph
(ESE 9 kph)
0.00 in
(0.00 mm)
8SM
01:53
Overcast
Light Rain
45°F / 7°C 45°F / 7°C 100% 29.27 in
(991 mb)
E 5.8 mph
(E 9 kph)
0.03 in
(0.76 mm)
8SM
01:50
Overcast
Light Rain
45°F / 7°C 45°F / 7°C 100% 29.27 in
(991 mb)
E 5.8 mph
(E 9 kph)
0.02 in
(0.51 mm)
9SM
00:53
Overcast
Light Rain
45°F / 7°C 45°F / 7°C 100% 29.24 in
(990 mb)
E 3.5 mph
(E 6 kph)
0.05 in
(1.27 mm)
8SM
Time Weather Temperature Dewpoint Humidity Pressure Winds Precip Visibility


Weather for websites

WeatherForYou.com, LLC is not responsible for any damages or problems caused by this service. Current weather conditions are obtained from the closest station including government and personal stations which may have varying degrees of accuracy. Weather forecasts are derived from the NOAA NDFD. Like all things, this site belongs to Jesus Christ... He just trusts me to maintain it. If you have any questions or comments email webmaster@weatherforyou.com

Copyright © 2014, WeatherForYou.com LLC. All rights reserved.